Location: Jackson Park
(37.2862°N, 79.9123°W)
Time: 12:58:56
(UTC+00:00)

ISS - Pass Details

Date: 20 April 2026
Orbit: 414 x 424 km, 51.6° (Epoch: 12 May)

Event Time Altitude Azimuth Distance (km) Brightness Sun altitude
Exits shadow 08:06:55 16° 91° (E) 1,181 -1.0 -27.2°
Drops below altitude 10° 08:07:58 10° 77° (ENE) 1,496 -0.2 -27.0°
Sets 08:10:20 0° 62° (ENE) 2,366 1.3 -26.7°
